Time,TemperatureF,DewpointF,PressureIn,WindDirection,WindDirectionDegrees,WindSpeedMPH,WindSpeedGustMPH,Humidity,HourlyPrecipIn,Conditions,Clouds,dailyrainin,SoftwareType,DateUTC
2013-06-25 00:00:00,60.7,57.5,29.95,WNW,292,0.0,1.4,91,0.00,,,0.00,Rainwise IP-100,2013-06-25 07:00:00,
2013-06-25 00:05:00,60.7,58.0,29.95,WNW,292,0.0,0.0,92,0.00,,,0.00,Rainwise IP-100,2013-06-25 07:05:00,
2013-06-25 00:10:00,60.7,58.0,29.95,WNW,292,0.0,0.0,92,0.00,,,0.00,Rainwise IP-100,2013-06-25 07:10:00,
2013-06-25 00:15:00,60.6,58.0,29.95,WNW,292,0.0,0.0,92,0.00,,,0.00,Rainwise IP-100,2013-06-25 07:15:00,
2013-06-25 00:20:00,60.4,58.0,29.95,WNW,292,0.0,0.0,92,0.00,,,0.00,Rainwise IP-100,2013-06-25 07:20:00,
2013-06-25 00:25:00,60.3,58.0,29.95,WNW,292,0.0,0.0,92,0.00,,,0.00,Rainwise IP-100,2013-06-25 07:25:00,
2013-06-25 00:30:00,60.3,58.0,29.95,SW,225,0.0,2.3,93,0.00,,,0.00,Rainwise IP-100,2013-06-25 07:30:00,
2013-06-25 00:35:00,60.4,58.0,29.95,SW,225,0.0,1.4,93,0.00,,,0.00,Rainwise IP-100,2013-06-25 07:35:00,
2013-06-25 00:40:00,60.3,58.0,29.95,SW,225,0.0,0.0,93,0.00,,,0.00,Rainwise IP-100,2013-06-25 07:40:00,
2013-06-25 00:45:00,60.1,57.5,29.95,SW,225,0.0,0.0,93,0.00,,,0.00,Rainwise IP-100,2013-06-25 07:45:00,
2013-06-25 00:50:00,60.0,57.5,29.95,SW,225,0.0,0.0,93,0.00,,,0.00,Rainwise IP-100,2013-06-25 07:50:00,
2013-06-25 00:55:00,60.0,57.5,29.95,SW,225,0.0,0.0,93,0.00,,,0.00,Rainwise IP-100,2013-06-25 07:55:00,
2013-06-25 01:00:00,60.1,58.0,29.95,SW,225,0.0,0.0,94,0.00,,,0.00,Rainwise IP-100,2013-06-25 08:00:00,
2013-06-25 01:05:00,60.1,58.0,29.95,SW,225,0.0,0.0,94,0.00,,,0.00,Rainwise IP-100,2013-06-25 08:05:00,
2013-06-25 01:10:00,60.0,58.0,29.95,SW,225,0.0,0.0,94,0.00,,,0.00,Rainwise IP-100,2013-06-25 08:10:00,
2013-06-25 01:15:00,59.8,58.0,29.95,SW,225,0.0,0.0,94,0.00,,,0.00,Rainwise IP-100,2013-06-25 08:15:00,
2013-06-25 01:20:00,59.8,58.0,29.95,SW,225,0.0,0.0,94,0.00,,,0.00,Rainwise IP-100,2013-06-25 08:20:00,
2013-06-25 01:25:00,59.7,57.5,29.95,SW,225,0.0,0.0,94,0.00,,,0.00,Rainwise IP-100,2013-06-25 08:25:00,
2013-06-25 01:30:00,59.6,57.5,29.95,NNW,337,1.4,1.4,94,0.00,,,0.00,Rainwise IP-100,2013-06-25 08:30:00,
2013-06-25 01:35:00,59.7,57.5,29.95,NNW,337,0.0,2.3,94,0.00,,,0.00,Rainwise IP-100,2013-06-25 08:35:00,
2013-06-25 01:40:00,59.8,58.0,29.95,NNW,337,0.0,0.0,94,0.00,,,0.00,Rainwise IP-100,2013-06-25 08:40:00,
2013-06-25 01:45:00,59.7,57.5,29.95,NNW,337,0.0,0.0,94,0.00,,,0.00,Rainwise IP-100,2013-06-25 08:45:00,
2013-06-25 01:50:00,59.8,58.0,29.95,NNW,337,0.0,1.4,94,0.00,,,0.00,Rainwise IP-100,2013-06-25 08:50:00,
2013-06-25 01:55:00,59.9,58.0,29.96,NNW,337,0.0,1.2,94,0.00,,,0.00,Rainwise IP-100,2013-06-25 08:55:00,
2013-06-25 02:00:00,60.0,58.0,29.95,NNW,337,0.0,0.0,94,0.00,,,0.00,Rainwise IP-100,2013-06-25 09:00:00,
2013-06-25 02:05:00,59.9,58.0,29.95,NNW,337,0.0,0.0,94,0.00,,,0.00,Rainwise IP-100,2013-06-25 09:05:00,
2013-06-25 02:10:00,59.9,58.0,29.95,NNW,337,0.0,0.0,94,0.00,,,0.00,Rainwise IP-100,2013-06-25 09:10:00,
2013-06-25 02:15:00,59.6,57.5,29.96,NNW,337,0.0,0.0,94,0.00,,,0.00,Rainwise IP-100,2013-06-25 09:15:00,
2013-06-25 02:20:00,59.3,57.5,29.96,NNW,337,0.0,0.0,94,0.00,,,0.00,Rainwise IP-100,2013-06-25 09:20:00,
2013-06-25 02:25:00,59.1,57.0,29.96,NNW,337,0.0,0.0,93,0.00,,,0.00,Rainwise IP-100,2013-06-25 09:25:00,
2013-06-25 02:30:00,59.0,57.0,29.96,NNW,337,0.0,0.0,93,0.00,,,0.00,Rainwise IP-100,2013-06-25 09:30:00,
2013-06-25 02:35:00,59.0,57.0,29.96,NNW,337,0.0,0.0,94,0.00,,,0.00,Rainwise IP-100,2013-06-25 09:35:00,
2013-06-25 02:40:00,59.3,57.5,29.95,NNW,337,1.4,1.6,94,0.00,,,0.00,Rainwise IP-100,2013-06-25 09:40:00,
2013-06-25 02:45:00,59.6,57.5,29.95,NNW,337,0.0,1.6,95,0.00,,,0.00,Rainwise IP-100,2013-06-25 09:45:00,
2013-06-25 02:50:00,59.7,57.5,29.95,NNW,337,0.0,0.0,95,0.00,,,0.00,Rainwise IP-100,2013-06-25 09:50:00,
2013-06-25 02:55:00,59.7,57.5,29.95,NNW,337,0.0,0.0,95,0.00,,,0.00,Rainwise IP-100,2013-06-25 09:55:00,
2013-06-25 03:00:00,59.5,57.5,29.95,NNW,337,0.0,0.0,95,0.00,,,0.00,Rainwise IP-100,2013-06-25 10:00:00,
2013-06-25 03:05:00,59.3,57.5,29.96,NNW,337,0.0,0.0,95,0.00,,,0.00,Rainwise IP-100,2013-06-25 10:05:00,
2013-06-25 03:10:00,59.1,57.5,29.96,NNW,337,0.0,0.0,95,0.00,,,0.00,Rainwise IP-100,2013-06-25 10:10:00,
2013-06-25 03:15:00,58.9,57.5,29.96,NNW,337,0.0,0.0,95,0.00,,,0.00,Rainwise IP-100,2013-06-25 10:15:00,
2013-06-25 03:20:00,58.8,57.5,29.95,NNW,337,0.0,0.0,95,0.00,,,0.00,Rainwise IP-100,2013-06-25 10:20:00,
2013-06-25 03:25:00,58.6,57.5,29.96,NNW,337,0.0,0.0,95,0.00,,,0.00,Rainwise IP-100,2013-06-25 10:25:00,
2013-06-25 03:30:00,58.4,57.0,29.96,NNW,337,0.0,0.0,95,0.00,,,0.00,Rainwise IP-100,2013-06-25 10:30:00,
2013-06-25 03:35:00,58.3,57.0,29.96,NNW,337,0.0,0.0,95,0.00,,,0.00,Rainwise IP-100,2013-06-25 10:35:00,
2013-06-25 03:40:00,58.2,57.0,29.96,NNW,337,0.0,0.0,95,0.00,,,0.00,Rainwise IP-100,2013-06-25 10:40:00,
2013-06-25 03:45:00,58.2,57.0,29.96,NNW,337,0.0,0.0,95,0.00,,,0.00,Rainwise IP-100,2013-06-25 10:45:00,
2013-06-25 03:50:00,58.2,57.0,29.96,NNW,337,0.0,0.0,95,0.00,,,0.00,Rainwise IP-100,2013-06-25 10:50:00,
2013-06-25 03:55:00,58.4,57.0,29.96,NNW,337,0.0,1.2,95,0.00,,,0.00,Rainwise IP-100,2013-06-25 10:55:00,
2013-06-25 04:00:00,58.4,57.0,29.96,NNW,337,0.0,0.0,96,0.00,,,0.00,Rainwise IP-100,2013-06-25 11:00:00,
2013-06-25 04:05:00,58.4,57.0,29.97,NNW,337,0.0,0.0,96,0.00,,,0.00,Rainwise IP-100,2013-06-25 11:05:00,
2013-06-25 04:10:00,58.4,57.0,29.96,NNW,337,0.0,1.2,96,0.00,,,0.00,Rainwise IP-100,2013-06-25 11:10:00,
2013-06-25 04:15:00,58.6,57.5,29.97,NNW,337,1.2,1.4,96,0.00,,,0.00,Rainwise IP-100,2013-06-25 11:15:00,
2013-06-25 04:20:00,58.9,57.5,29.97,NNW,337,1.2,1.6,96,0.00,,,0.00,Rainwise IP-100,2013-06-25 11:20:00,
2013-06-25 04:25:00,59.2,57.5,29.97,NNW,337,0.0,1.4,96,0.00,,,0.00,Rainwise IP-100,2013-06-25 11:25:00,
2013-06-25 04:30:00,59.3,58.0,29.97,NNW,337,0.0,1.2,96,0.00,,,0.00,Rainwise IP-100,2013-06-25 11:30:00,
2013-06-25 04:35:00,59.4,58.0,29.97,NNW,337,0.0,1.2,96,0.00,,,0.00,Rainwise IP-100,2013-06-25 11:35:00,
2013-06-25 04:39:00,59.3,58.0,29.97,NNW,337,0.0,0.0,96,0.00,,,0.00,Rainwise IP-100,2013-06-25 11:39:00,
2013-06-25 04:44:00,59.1,57.5,29.97,NNW,337,0.0,0.0,95,0.00,,,0.00,Rainwise IP-100,2013-06-25 11:44:00,
2013-06-25 04:49:00,58.9,57.5,29.97,NNW,337,0.0,0.0,95,0.00,,,0.00,Rainwise IP-100,2013-06-25 11:49:00,
2013-06-25 04:54:00,58.8,57.5,29.98,NNW,337,0.0,0.0,95,0.00,,,0.00,Rainwise IP-100,2013-06-25 11:54:00,
2013-06-25 04:59:00,58.6,57.5,29.97,NNW,337,0.0,0.0,95,0.00,,,0.00,Rainwise IP-100,2013-06-25 11:59:00,
2013-06-25 05:04:00,58.4,57.0,29.97,NNW,337,0.0,0.0,95,0.00,,,0.00,Rainwise IP-100,2013-06-25 12:04:00,
2013-06-25 05:09:00,58.4,57.0,29.98,NNW,337,0.0,0.0,95,0.00,,,0.00,Rainwise IP-100,2013-06-25 12:09:00,
2013-06-25 05:14:00,58.4,57.0,29.98,NNW,337,0.0,0.0,96,0.00,,,0.00,Rainwise IP-100,2013-06-25 12:14:00,
2013-06-25 05:19:00,58.4,57.0,29.98,NNW,337,0.0,0.0,96,0.00,,,0.00,Rainwise IP-100,2013-06-25 12:19:00,
2013-06-25 05:24:00,58.5,57.5,29.98,NNW,337,0.0,0.0,96,0.00,,,0.00,Rainwise IP-100,2013-06-25 12:24:00,
2013-06-25 05:29:00,58.7,57.5,29.98,NNW,337,0.0,1.2,96,0.00,,,0.00,Rainwise IP-100,2013-06-25 12:29:00,
2013-06-25 05:34:00,59.0,57.5,29.98,NNW,337,0.0,1.4,96,0.00,,,0.00,Rainwise IP-100,2013-06-25 12:34:00,
2013-06-25 05:39:00,59.2,57.5,29.98,NNW,337,1.6,1.6,96,0.00,,,0.00,Rainwise IP-100,2013-06-25 12:39:00,
2013-06-25 05:44:00,59.6,58.0,29.99,NNW,337,0.0,2.1,96,0.00,,,0.00,Rainwise IP-100,2013-06-25 12:44:00,
2013-06-25 05:49:00,59.8,59.0,29.99,NNW,337,0.0,1.4,96,0.00,,,0.00,Rainwise IP-100,2013-06-25 12:49:00,
2013-06-25 05:54:00,59.8,59.0,29.99,NNW,337,0.0,0.0,96,0.00,,,0.00,Rainwise IP-100,2013-06-25 12:54:00,
2013-06-25 05:59:00,59.9,59.0,29.99,NNW,337,0.0,0.0,96,0.00,,,0.00,Rainwise IP-100,2013-06-25 12:59:00,
2013-06-25 06:04:00,60.1,59.0,29.99,NNW,337,0.0,0.0,96,0.00,,,0.00,Rainwise IP-100,2013-06-25 13:04:00,
2013-06-25 06:09:00,60.2,59.0,29.99,NNW,337,0.0,0.0,96,0.00,,,0.00,Rainwise IP-100,2013-06-25 13:09:00,
2013-06-25 06:14:00,60.2,59.0,30.00,NNW,337,0.0,0.0,96,0.00,,,0.00,Rainwise IP-100,2013-06-25 13:14:00,
2013-06-25 06:19:00,60.3,59.5,29.99,NNW,337,0.0,0.0,96,0.00,,,0.00,Rainwise IP-100,2013-06-25 13:19:00,
2013-06-25 06:24:00,60.2,59.0,29.99,NNW,337,0.0,0.0,96,0.00,,,0.00,Rainwise IP-100,2013-06-25 13:24:00,
2013-06-25 06:29:00,60.2,59.0,29.99,NNW,337,0.0,0.0,96,0.00,,,0.00,Rainwise IP-100,2013-06-25 13:29:00,
2013-06-25 06:34:00,60.3,59.5,29.99,NNW,337,0.0,0.0,96,0.00,,,0.00,Rainwise IP-100,2013-06-25 13:34:00,
2013-06-25 06:39:00,60.4,59.5,29.99,NNW,337,0.0,0.0,96,0.00,,,0.00,Rainwise IP-100,2013-06-25 13:39:00,
2013-06-25 06:44:00,60.5,59.5,29.99,NNW,337,0.0,0.0,96,0.00,,,0.00,Rainwise IP-100,2013-06-25 13:44:00,
2013-06-25 06:49:00,60.7,59.0,29.99,NNW,337,0.0,0.0,95,0.00,,,0.00,Rainwise IP-100,2013-06-25 13:49:00,
2013-06-25 06:54:00,60.8,59.5,29.99,NNW,337,0.0,0.0,95,0.00,,,0.00,Rainwise IP-100,2013-06-25 13:54:00,
2013-06-25 06:59:00,61.0,59.5,29.99,NNW,337,0.0,1.2,95,0.00,,,0.00,Rainwise IP-100,2013-06-25 13:59:00,
2013-06-25 07:04:00,61.2,59.5,29.99,NNW,337,0.0,0.0,95,0.00,,,0.00,Rainwise IP-100,2013-06-25 14:04:00,
2013-06-25 07:09:00,61.3,60.0,29.99,NNW,337,0.0,0.0,94,0.00,,,0.00,Rainwise IP-100,2013-06-25 14:09:00,
2013-06-25 07:14:00,61.5,60.0,29.99,NNW,337,0.0,0.0,94,0.00,,,0.00,Rainwise IP-100,2013-06-25 14:14:00,
2013-06-25 07:19:00,61.6,60.0,30.00,NNW,337,0.0,1.2,94,0.00,,,0.00,Rainwise IP-100,2013-06-25 14:19:00,
2013-06-25 07:24:00,61.8,60.0,30.00,NNW,337,0.0,1.2,93,0.00,,,0.00,Rainwise IP-100,2013-06-25 14:24:00,
2013-06-25 07:29:00,62.0,60.0,30.00,NNW,337,0.0,0.0,93,0.00,,,0.00,Rainwise IP-100,2013-06-25 14:29:00,
2013-06-25 07:34:00,62.3,60.5,30.00,NNW,337,0.0,0.0,93,0.00,,,0.00,Rainwise IP-100,2013-06-25 14:34:00,
2013-06-25 07:39:00,62.5,60.0,30.00,NNW,337,0.0,0.0,92,0.00,,,0.00,Rainwise IP-100,2013-06-25 14:39:00,
2013-06-25 07:44:00,62.8,60.5,30.00,NNW,337,0.0,0.0,92,0.00,,,0.00,Rainwise IP-100,2013-06-25 14:44:00,
2013-06-25 07:49:00,63.0,60.5,30.00,NNW,337,0.0,0.0,91,0.00,,,0.00,Rainwise IP-100,2013-06-25 14:49:00,
2013-06-25 07:54:00,63.2,60.5,30.00,NNW,337,0.0,0.0,91,0.00,,,0.00,Rainwise IP-100,2013-06-25 14:54:00,
2013-06-25 07:59:00,63.3,61.0,30.00,NNW,337,0.0,0.0,91,0.00,,,0.00,Rainwise IP-100,2013-06-25 14:59:00,
2013-06-25 08:04:00,63.5,60.5,30.00,NNW,337,0.0,0.0,90,0.00,,,0.00,Rainwise IP-100,2013-06-25 15:04:00,
2013-06-25 08:09:00,63.6,60.5,30.00,NNW,337,0.0,0.0,90,0.00,,,0.00,Rainwise IP-100,2013-06-25 15:09:00,
2013-06-25 08:14:00,63.8,61.0,30.00,NNW,337,0.0,0.0,90,0.00,,,0.00,Rainwise IP-100,2013-06-25 15:14:00,
2013-06-25 08:19:00,64.0,61.0,30.00,NNW,337,0.0,0.0,90,0.00,,,0.00,Rainwise IP-100,2013-06-25 15:19:00,
2013-06-25 08:24:00,64.2,60.5,30.00,NNW,337,0.0,0.0,89,0.00,,,0.00,Rainwise IP-100,2013-06-25 15:24:00,
2013-06-25 08:29:00,64.6,61.0,30.00,NNW,337,0.0,0.0,89,0.00,,,0.00,Rainwise IP-100,2013-06-25 15:29:00,
2013-06-25 08:34:00,65.0,61.5,30.00,West,270,0.0,0.0,88,0.00,,,0.00,Rainwise IP-100,2013-06-25 15:34:00,
2013-06-25 08:39:00,65.5,61.5,30.00,West,270,0.0,0.0,88,0.00,,,0.00,Rainwise IP-100,2013-06-25 15:39:00,
2013-06-25 08:44:00,65.9,62.0,30.00,SSW,202,0.0,3.0,87,0.00,,,0.00,Rainwise IP-100,2013-06-25 15:44:00,
2013-06-25 08:49:00,66.1,62.0,30.00,SSW,202,2.3,4.4,87,0.00,,,0.00,Rainwise IP-100,2013-06-25 15:49:00,
2013-06-25 08:54:00,66.0,61.5,30.01,SSW,202,2.1,4.7,86,0.00,,,0.00,Rainwise IP-100,2013-06-25 15:54:00,
2013-06-25 08:59:00,65.9,61.5,30.01,South,180,0.0,4.7,86,0.00,,,0.00,Rainwise IP-100,2013-06-25 15:59:00,
2013-06-25 09:04:00,65.9,61.5,30.01,North,360,2.8,4.9,86,0.00,,,0.00,Rainwise IP-100,2013-06-25 16:04:00,
2013-06-25 09:09:00,66.3,62.0,30.01,SSW,202,1.9,3.0,86,0.00,,,0.00,Rainwise IP-100,2013-06-25 16:09:00,
2013-06-25 09:14:00,66.9,62.5,30.00,SSW,202,3.0,3.0,85,0.00,,,0.00,Rainwise IP-100,2013-06-25 16:14:00,
2013-06-25 09:19:00,67.0,62.0,30.01,SSW,202,1.2,4.2,84,0.00,,,0.00,Rainwise IP-100,2013-06-25 16:19:00,
2013-06-25 09:24:00,67.1,62.0,30.01,WSW,247,0.0,3.7,83,0.00,,,0.00,Rainwise IP-100,2013-06-25 16:24:00,
2013-06-25 09:29:00,67.2,62.0,30.01,SSW,202,2.8,4.9,83,0.00,,,0.00,Rainwise IP-100,2013-06-25 16:29:00,
2013-06-25 09:34:00,67.1,62.0,30.01,WSW,247,0.0,4.9,83,0.00,,,0.00,Rainwise IP-100,2013-06-25 16:34:00,
2013-06-25 09:39:00,67.3,62.0,30.00,SSW,202,3.3,5.8,83,0.00,,,0.00,Rainwise IP-100,2013-06-25 16:39:00,
2013-06-25 09:44:00,67.6,62.0,30.01,WNW,292,2.6,6.5,82,0.00,,,0.00,Rainwise IP-100,2013-06-25 16:44:00,
2013-06-25 09:49:00,67.7,61.5,30.01,North,360,3.7,4.9,81,0.00,,,0.00,Rainwise IP-100,2013-06-25 16:49:00,
2013-06-25 09:54:00,68.0,62.5,30.01,SSW,202,1.6,4.4,82,0.00,,,0.00,Rainwise IP-100,2013-06-25 16:54:00,
2013-06-25 09:59:00,68.3,62.5,30.01,South,180,2.8,6.8,82,0.00,,,0.00,Rainwise IP-100,2013-06-25 16:59:00,
2013-06-25 10:04:00,68.4,62.5,30.00,SSW,202,5.4,7.9,81,0.00,,,0.00,Rainwise IP-100,2013-06-25 17:04:00,
2013-06-25 10:09:00,68.3,62.5,30.01,SSE,157,0.0,6.8,82,0.00,,,0.00,Rainwise IP-100,2013-06-25 17:09:00,
2013-06-25 10:14:00,68.1,62.5,30.01,SSW,202,5.1,8.2,82,0.00,,,0.00,Rainwise IP-100,2013-06-25 17:14:00,
2013-06-25 10:19:00,68.2,62.5,30.01,SSW,202,3.3,5.8,82,0.00,,,0.00,Rainwise IP-100,2013-06-25 17:19:00,
2013-06-25 10:24:00,68.2,62.5,30.01,SSW,202,0.0,9.3,83,0.00,,,0.00,Rainwise IP-100,2013-06-25 17:24:00,
2013-06-25 10:29:00,68.3,63.0,30.02,SSW,202,8.4,9.8,83,0.00,,,0.00,Rainwise IP-100,2013-06-25 17:29:00,
2013-06-25 10:34:00,67.6,62.0,30.02,South,180,2.3,9.1,83,0.00,,,0.00,Rainwise IP-100,2013-06-25 17:34:00,
2013-06-25 10:39:00,67.3,62.0,30.02,SSW,202,2.3,4.2,83,0.00,,,0.00,Rainwise IP-100,2013-06-25 17:39:00,
2013-06-25 10:44:00,67.5,62.5,30.02,SSW,202,3.7,4.9,84,0.00,,,0.00,Rainwise IP-100,2013-06-25 17:44:00,
2013-06-25 10:45:00,67.6,62.0,30.02,SSW,202,7.0,9.3,83,0.00,,,0.00,Rainwise IP-100,2013-06-25 17:45:00,
2013-06-25 10:50:00,67.5,62.0,30.01,SSW,202,3.3,7.2,83,0.00,,,0.00,Rainwise IP-100,2013-06-25 17:50:00,
2013-06-25 10:55:00,68.0,62.5,30.01,SSW,202,1.9,4.7,83,0.00,,,0.00,Rainwise IP-100,2013-06-25 17:55:00,
2013-06-25 11:00:00,69.0,63.0,30.01,SSW,202,0.0,7.5,81,0.00,,,0.00,Rainwise IP-100,2013-06-25 18:00:00,
2013-06-25 11:05:00,69.4,63.0,30.01,SSW,202,2.6,7.5,80,0.00,,,0.00,Rainwise IP-100,2013-06-25 18:05:00,
2013-06-25 11:10:00,69.3,62.5,30.01,WSW,247,0.0,8.2,79,0.00,,,0.00,Rainwise IP-100,2013-06-25 18:10:00,
2013-06-25 11:15:00,69.3,62.5,30.01,SSW,202,4.9,8.2,79,0.00,,,0.00,Rainwise IP-100,2013-06-25 18:15:00,
2013-06-25 11:20:00,69.6,62.5,30.01,SSE,157,0.0,7.7,78,0.00,,,0.00,Rainwise IP-100,2013-06-25 18:20:00,
2013-06-25 11:25:00,70.1,63.0,30.01,SSE,157,0.0,7.2,78,0.00,,,0.00,Rainwise IP-100,2013-06-25 18:25:00,
2013-06-25 11:30:00,70.0,63.0,30.01,SW,225,1.4,8.9,78,0.00,,,0.00,Rainwise IP-100,2013-06-25 18:30:00,
2013-06-25 11:35:00,70.2,62.5,30.01,South,180,2.6,8.2,77,0.00,,,0.00,Rainwise IP-100,2013-06-25 18:35:00,
2013-06-25 11:40:00,70.6,62.5,30.01,SSW,202,4.2,6.3,76,0.00,,,0.00,Rainwise IP-100,2013-06-25 18:40:00,
2013-06-25 11:45:00,70.8,63.0,30.01,SSW,202,0.0,7.0,76,0.00,,,0.00,Rainwise IP-100,2013-06-25 18:45:00,
2013-06-25 11:50:00,70.8,63.0,30.01,South,180,4.9,7.7,76,0.00,,,0.00,Rainwise IP-100,2013-06-25 18:50:00,
2013-06-25 11:55:00,70.6,62.5,30.01,SSE,157,1.9,8.2,76,0.00,,,0.00,Rainwise IP-100,2013-06-25 18:55:00,
2013-06-25 12:00:00,70.6,62.5,30.01,SSW,202,4.7,6.3,76,0.00,,,0.00,Rainwise IP-100,2013-06-25 19:00:00,
2013-06-25 12:05:00,70.6,62.5,30.00,NNE,22,1.9,6.3,76,0.00,,,0.00,Rainwise IP-100,2013-06-25 19:05:00,
2013-06-25 12:10:00,70.5,62.5,30.00,NNE,22,1.4,8.6,76,0.00,,,0.00,Rainwise IP-100,2013-06-25 19:10:00,
2013-06-25 12:15:00,70.9,63.0,30.01,West,270,1.6,5.4,76,0.00,,,0.00,Rainwise IP-100,2013-06-25 19:15:00,
2013-06-25 12:20:00,70.8,63.0,30.00,SSW,202,7.0,8.9,76,0.00,,,0.00,Rainwise IP-100,2013-06-25 19:20:00,
2013-06-25 12:25:00,70.1,62.0,30.00,SSW,202,0.0,9.1,76,0.00,,,0.00,Rainwise IP-100,2013-06-25 19:25:00,
2013-06-25 12:30:00,70.5,63.0,30.00,SSW,202,0.0,5.1,77,0.00,,,0.00,Rainwise IP-100,2013-06-25 19:30:00,
2013-06-25 12:35:00,70.9,63.0,30.01,WSW,247,4.7,8.6,76,0.00,,,0.00,Rainwise IP-100,2013-06-25 19:35:00,
2013-06-25 12:40:00,70.3,62.5,30.00,SSW,202,6.3,9.3,76,0.00,,,0.00,Rainwise IP-100,2013-06-25 19:40:00,
2013-06-25 12:45:00,69.7,61.5,30.00,SSW,202,4.7,8.6,76,0.00,,,0.00,Rainwise IP-100,2013-06-25 19:45:00,
2013-06-25 12:50:00,69.6,62.0,30.01,WSW,247,6.8,7.0,77,0.00,,,0.00,Rainwise IP-100,2013-06-25 19:50:00,
2013-06-25 12:55:00,69.3,61.5,30.01,SE,135,1.9,10.5,77,0.00,,,0.00,Rainwise IP-100,2013-06-25 19:55:00,
2013-06-25 13:00:00,69.2,62.0,30.00,South,180,1.2,9.3,78,0.00,,,0.00,Rainwise IP-100,2013-06-25 20:00:00,
2013-06-25 13:05:00,69.5,63.0,30.00,SSW,202,3.3,8.9,79,0.00,,,0.00,Rainwise IP-100,2013-06-25 20:05:00,
2013-06-25 13:10:00,69.9,63.0,30.00,SSW,202,3.5,8.6,78,0.00,,,0.00,Rainwise IP-100,2013-06-25 20:10:00,
2013-06-25 13:15:00,69.9,63.0,30.00,SSW,202,3.0,9.3,78,0.00,,,0.00,Rainwise IP-100,2013-06-25 20:15:00,
2013-06-25 13:20:00,70.0,63.0,30.00,SSW,202,4.4,8.9,78,0.00,,,0.00,Rainwise IP-100,2013-06-25 20:20:00,
2013-06-25 13:25:00,69.9,62.5,30.00,SSW,202,6.5,10.0,77,0.00,,,0.00,Rainwise IP-100,2013-06-25 20:25:00,
2013-06-25 13:30:00,69.8,62.5,30.00,West,270,0.0,10.3,78,0.00,,,0.00,Rainwise IP-100,2013-06-25 20:30:00,
2013-06-25 13:35:00,70.6,63.0,30.00,NW,315,2.6,7.2,77,0.00,,,0.00,Rainwise IP-100,2013-06-25 20:35:00,
2013-06-25 13:40:00,71.6,63.5,29.99,West,270,4.4,7.7,76,0.00,,,0.00,Rainwise IP-100,2013-06-25 20:40:00,
2013-06-25 13:45:00,71.9,63.0,29.99,South,180,3.7,8.9,74,0.00,,,0.00,Rainwise IP-100,2013-06-25 20:45:00,
2013-06-25 13:50:00,72.0,63.0,29.99,West,270,3.3,7.7,73,0.00,,,0.00,Rainwise IP-100,2013-06-25 20:50:00,
2013-06-25 13:55:00,72.3,63.0,29.99,SSE,157,0.0,9.1,73,0.00,,,0.00,Rainwise IP-100,2013-06-25 20:55:00,
2013-06-25 14:00:00,72.5,63.0,29.98,NW,315,5.8,9.8,72,0.00,,,0.00,Rainwise IP-100,2013-06-25 21:00:00,
2013-06-25 14:05:00,72.7,63.0,29.98,SSW,202,4.4,7.9,72,0.00,,,0.00,Rainwise IP-100,2013-06-25 21:05:00,
2013-06-25 14:10:00,72.9,63.0,29.99,WSW,247,3.3,8.2,71,0.00,,,0.00,Rainwise IP-100,2013-06-25 21:10:00,
2013-06-25 14:15:00,73.5,63.5,29.99,WSW,247,4.4,7.7,70,0.00,,,0.00,Rainwise IP-100,2013-06-25 21:15:00,
2013-06-25 14:20:00,73.7,63.0,29.98,SSW,202,4.4,8.6,69,0.00,,,0.00,Rainwise IP-100,2013-06-25 21:20:00,
2013-06-25 14:25:00,73.6,62.5,29.98,SSW,202,4.0,9.3,68,0.00,,,0.00,Rainwise IP-100,2013-06-25 21:25:00,
2013-06-25 14:30:00,73.3,62.5,29.98,WNW,292,2.3,9.6,69,0.00,,,0.00,Rainwise IP-100,2013-06-25 21:30:00,
2013-06-25 14:31:00,73.3,62.5,29.98,South,180,3.0,9.6,69,0.00,,,0.00,Rainwise IP-100,2013-06-25 21:31:00,
2013-06-25 14:36:00,73.7,63.0,29.97,NW,315,1.4,7.9,69,0.00,,,0.00,Rainwise IP-100,2013-06-25 21:36:00,
2013-06-25 14:41:00,74.0,62.5,29.97,WSW,247,4.0,8.4,67,0.00,,,0.00,Rainwise IP-100,2013-06-25 21:41:00,
2013-06-25 14:46:00,73.7,62.0,29.97,WSW,247,0.0,9.1,67,0.00,,,0.00,Rainwise IP-100,2013-06-25 21:46:00,
2013-06-25 14:51:00,73.6,62.0,29.97,NW,315,0.0,7.9,67,0.00,,,0.00,Rainwise IP-100,2013-06-25 21:51:00,
2013-06-25 14:56:00,74.2,63.0,29.96,SSW,202,5.1,5.8,67,0.00,,,0.00,Rainwise IP-100,2013-06-25 21:56:00,
2013-06-25 15:01:00,74.5,63.0,29.96,SSW,202,5.8,5.8,67,0.00,,,0.00,Rainwise IP-100,2013-06-25 22:01:00,
2013-06-25 15:06:00,74.6,63.0,29.96,WSW,247,2.8,7.2,67,0.00,,,0.00,Rainwise IP-100,2013-06-25 22:06:00,
2013-06-25 15:11:00,74.9,63.5,29.95,WNW,292,4.7,7.0,67,0.00,,,0.00,Rainwise IP-100,2013-06-25 22:11:00,
2013-06-25 15:16:00,74.9,63.5,29.95,NW,315,2.1,7.5,67,0.00,,,0.00,Rainwise IP-100,2013-06-25 22:16:00,
2013-06-25 15:21:00,74.9,63.0,29.95,West,270,0.0,7.9,66,0.00,,,0.00,Rainwise IP-100,2013-06-25 22:21:00,
2013-06-25 15:26:00,75.2,63.0,29.95,SSE,157,3.7,5.8,66,0.00,,,0.00,Rainwise IP-100,2013-06-25 22:26:00,
2013-06-25 15:31:00,75.5,63.5,29.95,NW,315,2.8,10.5,66,0.00,,,0.00,Rainwise IP-100,2013-06-25 22:31:00,
2013-06-25 15:36:00,76.1,63.0,29.95,SSW,202,2.8,7.9,64,0.00,,,0.00,Rainwise IP-100,2013-06-25 22:36:00,
2013-06-25 15:41:00,76.5,63.0,29.94,SSW,202,2.3,6.5,63,0.00,,,0.00,Rainwise IP-100,2013-06-25 22:41:00,
2013-06-25 15:46:00,76.5,63.0,29.94,WNW,292,3.0,7.2,63,0.00,,,0.00,Rainwise IP-100,2013-06-25 22:46:00,
2013-06-25 15:51:00,76.5,63.0,29.94,SSW,202,6.1,7.0,63,0.00,,,0.00,Rainwise IP-100,2013-06-25 22:51:00,
2013-06-25 15:56:00,76.3,62.5,29.94,SSW,202,3.5,8.6,63,0.00,,,0.00,Rainwise IP-100,2013-06-25 22:56:00,
2013-06-25 16:01:00,75.8,62.5,29.94,SSW,202,2.8,6.8,63,0.00,,,0.00,Rainwise IP-100,2013-06-25 23:01:00,
2013-06-25 16:06:00,76.1,62.5,29.93,SSW,202,5.4,7.9,63,0.00,,,0.00,Rainwise IP-100,2013-06-25 23:06:00,
2013-06-25 16:11:00,76.5,62.5,29.93,SSW,202,4.0,6.3,62,0.00,,,0.00,Rainwise IP-100,2013-06-25 23:11:00,
2013-06-25 16:16:00,76.4,62.5,29.93,WNW,292,2.3,7.9,62,0.00,,,0.00,Rainwise IP-100,2013-06-25 23:16:00,
2013-06-25 16:21:00,76.6,62.0,29.93,West,270,2.3,8.2,61,0.00,,,0.00,Rainwise IP-100,2013-06-25 23:21:00,
2013-06-25 16:26:00,76.9,62.5,29.93,SW,225,4.7,7.0,61,0.00,,,0.00,Rainwise IP-100,2013-06-25 23:26:00,
2013-06-25 16:31:00,77.1,62.0,29.93,WSW,247,0.0,7.9,60,0.00,,,0.00,Rainwise IP-100,2013-06-25 23:31:00,
2013-06-25 16:36:00,77.1,61.5,29.93,South,180,1.2,9.1,59,0.00,,,0.00,Rainwise IP-100,2013-06-25 23:36:00,
2013-06-25 16:41:00,77.2,61.5,29.93,SSW,202,2.3,10.3,58,0.00,,,0.00,Rainwise IP-100,2013-06-25 23:41:00,
2013-06-25 16:46:00,77.2,61.5,29.93,NNE,22,1.2,9.1,58,0.00,,,0.00,Rainwise IP-100,2013-06-25 23:46:00,
2013-06-25 16:51:00,77.0,61.5,29.93,West,270,9.8,9.8,58,0.00,,,0.00,Rainwise IP-100,2013-06-25 23:51:00,
2013-06-25 16:56:00,76.4,61.0,29.92,SSE,157,4.7,10.7,59,0.00,,,0.00,Rainwise IP-100,2013-06-25 23:56:00,
2013-06-25 17:01:00,76.0,61.0,29.92,WNW,292,1.4,12.8,60,0.00,,,0.00,Rainwise IP-100,2013-06-26 00:01:00,
2013-06-25 17:06:00,75.9,61.0,29.92,SSW,202,2.1,11.7,60,0.00,,,0.00,Rainwise IP-100,2013-06-26 00:06:00,
2013-06-25 17:11:00,75.6,61.0,29.92,SSW,202,1.9,7.9,61,0.00,,,0.00,Rainwise IP-100,2013-06-26 00:11:00,
2013-06-25 17:16:00,75.6,61.0,29.92,SW,225,1.2,9.8,61,0.00,,,0.00,Rainwise IP-100,2013-06-26 00:16:00,
2013-06-25 17:21:00,75.9,61.5,29.92,SW,225,2.8,8.2,61,0.00,,,0.00,Rainwise IP-100,2013-06-26 00:21:00,
2013-06-25 17:26:00,76.1,61.5,29.92,WNW,292,6.3,7.9,61,0.00,,,0.00,Rainwise IP-100,2013-06-26 00:26:00,
2013-06-25 17:31:00,76.0,61.5,29.92,SSE,157,2.6,8.4,61,0.00,,,0.00,Rainwise IP-100,2013-06-26 00:31:00,
2013-06-25 17:36:00,75.5,61.0,29.92,WNW,292,1.9,8.9,61,0.00,,,0.00,Rainwise IP-100,2013-06-26 00:36:00,
2013-06-25 17:41:00,75.4,61.5,29.91,NNW,337,1.4,7.7,62,0.00,,,0.00,Rainwise IP-100,2013-06-26 00:41:00,
2013-06-25 17:46:00,75.7,62.0,29.91,SSW,202,4.9,7.5,63,0.00,,,0.00,Rainwise IP-100,2013-06-26 00:46:00,
2013-06-25 17:51:00,75.7,62.0,29.92,SSW,202,3.3,7.0,63,0.00,,,0.00,Rainwise IP-100,2013-06-26 00:51:00,
2013-06-25 17:56:00,75.4,62.0,29.91,WNW,292,3.0,7.5,63,0.00,,,0.00,Rainwise IP-100,2013-06-26 00:56:00,
2013-06-25 18:01:00,75.6,62.0,29.90,SSE,157,4.7,7.7,63,0.00,,,0.00,Rainwise IP-100,2013-06-26 01:01:00,
2013-06-25 18:06:00,75.8,62.0,29.91,SSE,157,0.0,6.1,62,0.00,,,0.00,Rainwise IP-100,2013-06-26 01:06:00,
2013-06-25 18:11:00,75.7,61.5,29.91,SSE,157,2.1,5.8,62,0.00,,,0.00,Rainwise IP-100,2013-06-26 01:11:00,
2013-06-25 18:16:00,75.6,61.5,29.91,SSW,202,2.1,6.8,62,0.00,,,0.00,Rainwise IP-100,2013-06-26 01:16:00,
2013-06-25 18:21:00,75.7,61.5,29.91,WSW,247,1.2,6.8,62,0.00,,,0.00,Rainwise IP-100,2013-06-26 01:21:00,
2013-06-25 18:26:00,76.1,62.0,29.91,NW,315,2.6,5.8,62,0.00,,,0.00,Rainwise IP-100,2013-06-26 01:26:00,
2013-06-25 18:31:00,76.4,62.5,29.91,SSE,157,1.4,5.4,62,0.00,,,0.00,Rainwise IP-100,2013-06-26 01:31:00,
2013-06-25 18:36:00,76.6,62.0,29.90,WNW,292,0.0,4.7,61,0.00,,,0.00,Rainwise IP-100,2013-06-26 01:36:00,
2013-06-25 18:41:00,76.7,62.5,29.91,SSE,157,0.0,7.7,61,0.00,,,0.00,Rainwise IP-100,2013-06-26 01:41:00,
2013-06-25 18:46:00,76.4,62.0,29.91,WNW,292,0.0,4.7,61,0.00,,,0.00,Rainwise IP-100,2013-06-26 01:46:00,
2013-06-25 18:51:00,76.0,62.0,29.91,South,180,1.6,4.7,62,0.00,,,0.00,Rainwise IP-100,2013-06-26 01:51:00,
2013-06-25 18:56:00,75.8,62.5,29.90,NNE,22,0.0,4.2,63,0.00,,,0.00,Rainwise IP-100,2013-06-26 01:56:00,
2013-06-25 19:01:00,74.9,62.0,29.91,South,180,3.5,4.0,64,0.00,,,0.00,Rainwise IP-100,2013-06-26 02:01:00,
2013-06-25 19:06:00,73.7,61.5,29.91,SSW,202,3.3,4.0,66,0.00,,,0.00,Rainwise IP-100,2013-06-26 02:06:00,
2013-06-25 19:11:00,72.9,61.5,29.91,SSE,157,0.0,5.1,67,0.00,,,0.00,Rainwise IP-100,2013-06-26 02:11:00,
2013-06-25 19:16:00,72.3,61.5,29.91,SSE,157,4.0,4.2,69,0.00,,,0.00,Rainwise IP-100,2013-06-26 02:16:00,
2013-06-25 19:21:00,71.9,61.5,29.91,SSW,202,1.9,4.0,70,0.00,,,0.00,Rainwise IP-100,2013-06-26 02:21:00,
2013-06-25 19:26:00,71.3,61.5,29.91,SSE,157,2.3,4.2,71,0.00,,,0.00,Rainwise IP-100,2013-06-26 02:26:00,
2013-06-25 19:31:00,70.8,61.5,29.91,NNW,337,2.3,4.4,72,0.00,,,0.00,Rainwise IP-100,2013-06-26 02:31:00,
2013-06-25 19:36:00,70.4,61.5,29.91,SSW,202,2.8,4.4,73,0.00,,,0.00,Rainwise IP-100,2013-06-26 02:36:00,
2013-06-25 19:41:00,69.9,61.5,29.91,South,180,4.0,4.9,74,0.00,,,0.00,Rainwise IP-100,2013-06-26 02:41:00,
2013-06-25 19:46:00,69.4,61.0,29.91,SSE,157,1.4,4.7,75,0.00,,,0.00,Rainwise IP-100,2013-06-26 02:46:00,
2013-06-25 19:51:00,68.9,61.5,29.91,WSW,247,1.4,4.9,77,0.00,,,0.00,Rainwise IP-100,2013-06-26 02:51:00,
2013-06-25 19:56:00,68.5,61.5,29.91,SSE,157,4.2,5.1,78,0.00,,,0.00,Rainwise IP-100,2013-06-26 02:56:00,
2013-06-25 20:01:00,68.1,61.5,29.91,South,180,2.3,4.7,79,0.00,,,0.00,Rainwise IP-100,2013-06-26 03:01:00,
2013-06-25 20:06:00,67.7,61.0,29.91,SSE,157,0.0,5.1,80,0.00,,,0.00,Rainwise IP-100,2013-06-26 03:06:00,
2013-06-25 20:11:00,67.4,61.5,29.91,South,180,2.8,4.7,81,0.00,,,0.00,Rainwise IP-100,2013-06-26 03:11:00,
2013-06-25 20:16:00,67.2,61.5,29.91,South,180,4.7,5.1,82,0.00,,,0.00,Rainwise IP-100,2013-06-26 03:16:00,
2013-06-25 20:21:00,67.0,62.0,29.92,SSE,157,4.2,5.8,83,0.00,,,0.00,Rainwise IP-100,2013-06-26 03:21:00,
2013-06-25 20:26:00,66.8,61.5,29.92,SSE,157,0.0,4.4,83,0.00,,,0.00,Rainwise IP-100,2013-06-26 03:26:00,
2013-06-25 20:31:00,66.6,61.5,29.92,SSE,157,3.5,4.7,84,0.00,,,0.00,Rainwise IP-100,2013-06-26 03:31:00,
2013-06-25 20:36:00,66.4,61.5,29.92,SSW,202,2.1,3.7,84,0.00,,,0.00,Rainwise IP-100,2013-06-26 03:36:00,
2013-06-25 20:41:00,66.2,61.5,29.92,SSE,157,0.0,3.3,85,0.00,,,0.00,Rainwise IP-100,2013-06-26 03:41:00,
2013-06-25 20:46:00,66.1,61.0,29.92,SSW,202,1.6,2.3,85,0.00,,,0.00,Rainwise IP-100,2013-06-26 03:46:00,
2013-06-25 20:51:00,66.1,61.5,29.92,SW,225,1.9,2.8,86,0.00,,,0.00,Rainwise IP-100,2013-06-26 03:51:00,
2013-06-25 20:56:00,66.1,61.5,29.92,SSW,202,0.0,2.1,86,0.00,,,0.00,Rainwise IP-100,2013-06-26 03:56:00,
2013-06-25 21:01:00,66.0,61.5,29.92,SSW,202,1.6,1.6,86,0.00,,,0.00,Rainwise IP-100,2013-06-26 04:01:00,
2013-06-25 21:06:00,65.9,61.5,29.93,SSW,202,0.0,2.3,86,0.00,,,0.00,Rainwise IP-100,2013-06-26 04:06:00,
2013-06-25 21:11:00,65.8,61.5,29.93,WNW,292,0.0,2.3,86,0.00,,,0.00,Rainwise IP-100,2013-06-26 04:11:00,
2013-06-25 21:16:00,65.8,62.0,29.93,NW,315,0.0,4.0,87,0.00,,,0.00,Rainwise IP-100,2013-06-26 04:16:00,
2013-06-25 21:21:00,65.8,62.0,29.93,NW,315,0.0,2.8,87,0.00,,,0.00,Rainwise IP-100,2013-06-26 04:21:00,
2013-06-25 21:26:00,65.7,61.0,29.93,NW,315,0.0,0.0,86,0.00,,,0.00,Rainwise IP-100,2013-06-26 04:26:00,
2013-06-25 21:31:00,65.5,61.0,29.93,NW,315,0.0,0.0,86,0.00,,,0.00,Rainwise IP-100,2013-06-26 04:31:00,
2013-06-25 21:36:00,65.3,61.0,29.93,NW,315,0.0,0.0,86,0.00,,,0.00,Rainwise IP-100,2013-06-26 04:36:00,
2013-06-25 21:41:00,65.3,61.5,29.94,NW,315,0.0,1.2,87,0.00,,,0.00,Rainwise IP-100,2013-06-26 04:41:00,
2013-06-25 21:46:00,65.1,61.0,29.94,NW,315,0.0,0.0,87,0.00,,,0.00,Rainwise IP-100,2013-06-26 04:46:00,
2013-06-25 21:51:00,64.9,61.0,29.94,NW,315,0.0,0.0,87,0.00,,,0.00,Rainwise IP-100,2013-06-26 04:51:00,
2013-06-25 21:56:00,64.9,61.0,29.95,NW,315,0.0,1.9,87,0.00,,,0.00,Rainwise IP-100,2013-06-26 04:56:00,
2013-06-25 22:01:00,64.9,61.0,29.95,NW,315,0.0,1.4,87,0.00,,,0.00,Rainwise IP-100,2013-06-26 05:01:00,
2013-06-25 22:06:00,64.9,61.0,29.95,NW,315,0.0,0.0,87,0.00,,,0.00,Rainwise IP-100,2013-06-26 05:06:00,
2013-06-25 22:11:00,64.7,60.5,29.94,NW,315,1.2,1.4,87,0.00,,,0.00,Rainwise IP-100,2013-06-26 05:11:00,
2013-06-25 22:16:00,64.7,60.5,29.94,NW,315,0.0,1.4,87,0.00,,,0.00,Rainwise IP-100,2013-06-26 05:16:00,
2013-06-25 22:21:00,64.9,61.0,29.94,NW,315,0.0,0.0,87,0.00,,,0.00,Rainwise IP-100,2013-06-26 05:21:00,
2013-06-25 22:26:00,64.7,60.5,29.94,NW,315,0.0,0.0,87,0.00,,,0.00,Rainwise IP-100,2013-06-26 05:26:00,
2013-06-25 22:31:00,64.7,60.5,29.94,NW,315,0.0,0.0,87,0.00,,,0.00,Rainwise IP-100,2013-06-26 05:31:00,
2013-06-25 22:36:00,64.8,61.0,29.94,NW,315,0.0,0.0,87,0.00,,,0.00,Rainwise IP-100,2013-06-26 05:36:00,
2013-06-25 22:41:00,64.7,60.5,29.94,NW,315,0.0,0.0,87,0.00,,,0.00,Rainwise IP-100,2013-06-26 05:41:00,
2013-06-25 22:46:00,64.5,60.5,29.95,NW,315,1.2,0.0,87,0.00,,,0.00,Rainwise IP-100,2013-06-26 05:46:00,
2013-06-25 22:51:00,64.5,61.0,29.95,NW,315,1.2,2.3,88,0.00,,,0.00,Rainwise IP-100,2013-06-26 05:51:00,
2013-06-25 22:56:00,64.6,61.0,29.95,NW,315,0.0,2.3,88,0.00,,,0.00,Rainwise IP-100,2013-06-26 05:56:00,
2013-06-25 23:01:00,64.6,61.0,29.95,NW,315,0.0,1.2,88,0.00,,,0.00,Rainwise IP-100,2013-06-26 06:01:00,
2013-06-25 23:06:00,64.5,61.0,29.95,NW,315,0.0,1.2,88,0.00,,,0.00,Rainwise IP-100,2013-06-26 06:06:00,
2013-06-25 23:11:00,64.4,61.0,29.95,NW,315,0.0,0.0,89,0.00,,,0.00,Rainwise IP-100,2013-06-26 06:11:00,
2013-06-25 23:16:00,64.2,60.5,29.95,NW,315,0.0,0.0,89,0.00,,,0.00,Rainwise IP-100,2013-06-26 06:16:00,
2013-06-25 23:21:00,64.0,60.5,29.95,NW,315,0.0,1.4,89,0.00,,,0.00,Rainwise IP-100,2013-06-26 06:21:00,
2013-06-25 23:26:00,63.9,60.5,29.95,NW,315,0.0,1.6,89,0.00,,,0.00,Rainwise IP-100,2013-06-26 06:26:00,
2013-06-25 23:31:00,63.7,60.5,29.95,NW,315,1.2,1.2,89,0.00,,,0.00,Rainwise IP-100,2013-06-26 06:31:00,
2013-06-25 23:36:00,63.6,60.5,29.95,NW,315,0.0,1.6,89,0.00,,,0.00,Rainwise IP-100,2013-06-26 06:36:00,
2013-06-25 23:41:00,63.6,60.5,29.95,NW,315,0.0,0.0,90,0.00,,,0.00,Rainwise IP-100,2013-06-26 06:41:00,
2013-06-25 23:46:00,63.7,60.5,29.95,NW,315,0.0,2.6,90,0.00,,,0.00,Rainwise IP-100,2013-06-26 06:46:00,
2013-06-25 23:51:00,63.8,61.0,29.95,NW,315,0.0,1.9,90,0.00,,,0.00,Rainwise IP-100,2013-06-26 06:51:00,
2013-06-25 23:56:00,63.7,61.0,29.95,NW,315,0.0,0.0,91,0.00,,,0.00,Rainwise IP-100,2013-06-26 06:56:00,